Weather reports worldwide

Advertisment
Tampico/Tamps, Mexico (76548): temperature & dewpoint: 11.10.2018 16:00:00 - 17.10.2018 16:00:00 (CDT)Tampico/Tamps, Mexico (76548): wind speed: 11.10.2018 16:00:00 - 17.10.2018 16:00:00 (CDT)Tampico/Tamps, Mexico (76548): wind direction: 11.10.2018 16:00:00 - 17.10.2018 16:00:00 (CDT)Tampico/Tamps, Mexico (76548): reduced air pressure: 11.10.2018 16:00:00 - 17.10.2018 16:00:00 (CDT)Tampico/Tamps, Mexico (76548): visibility: 11.10.2018 16:00:00 - 17.10.2018 16:00:00 (CDT)
Date & Time tt [°C] td [°C] ff [km/h] ff [kn] dd ppp [hPa] vv [km]
17.10.2018 16:00:00 19,4 18,8 11 6 N 1020,7 22
17.10.2018 15:00:00 - - - - - - -
17.10.2018 14:00:00 - - - - - - -
17.10.2018 13:00:00 17,6 16,7 11 6 N 1022,9 22
17.10.2018 12:00:00 - - - - - - -
17.10.2018 11:00:00 - - - - - - -
17.10.2018 10:00:00 16,0 14,4 11 6 N 1023,8 20
17.10.2018 09:00:00 - - - - - - -
17.10.2018 08:00:00 - - - - - - -
17.10.2018 07:00:00 16,6 14,0 11 6 NE 1020,8 10
17.10.2018 06:00:00 - - - - - - -
17.10.2018 05:00:00 - - - - - - -
17.10.2018 04:00:00 16,4 15,1 11 6 NE 1020,6 10
17.10.2018 03:00:00 - - - - - - -
17.10.2018 02:00:00 - - - - - - -
17.10.2018 01:00:00 16,8 15,2 11 6 NE 1021,1 10
17.10.2018 00:00:00 - - - - - - -
16.10.2018 23:00:00 - - - - - - -
16.10.2018 22:00:00 17,2 15,6 11 6 NE 1019,7 10
16.10.2018 21:00:00 - - - - - - -
16.10.2018 20:00:00 - - - - - - -
16.10.2018 19:00:00 18,6 14,8 11 6 NE 1018,2 22
16.10.2018 18:00:00 - - - - - - -
16.10.2018 17:00:00 - - - - - - -
16.10.2018 16:00:00 20,2 15,2 7 4 NE 1018,0 25
16.10.2018 15:00:00 - - - - - - -
16.10.2018 14:00:00 - - - - - - -
16.10.2018 13:00:00 20,4 14,4 11 6 E 1019,2 25
16.10.2018 12:00:00 - - - - - - -
16.10.2018 11:00:00 - - - - - - -
16.10.2018 10:00:00 17,8 15,3 14 8 NE 1019,3 22
16.10.2018 09:00:00 - - - - - - -
16.10.2018 08:00:00 - - - - - - -
16.10.2018 07:00:00 16,2 13,2 25 14 N 1017,5 10
16.10.2018 06:00:00 - - - - - - -
16.10.2018 05:00:00 - - - - - - -
16.10.2018 04:00:00 17,8 14,6 25 14 N 1016,2 10
16.10.2018 03:00:00 - - - - - - -
16.10.2018 02:00:00 - - - - - - -
16.10.2018 01:00:00 19,0 16,5 25 14 N 1015,5 10
16.10.2018 00:00:00 - - - - - - -
15.10.2018 23:00:00 - - - - - - -
15.10.2018 22:00:00 23,2 21,2 25 14 NNE 1014,8 10
15.10.2018 21:00:00 - - - - - - -
15.10.2018 20:00:00 - - - - - - -
15.10.2018 19:00:00 29,8 26,1 14 8 ESE 1011,0 20
15.10.2018 18:00:00 - - - - - - -
15.10.2018 17:00:00 - - - - - - -
15.10.2018 16:00:00 31,8 26,5 14 8 SE 1009,7 20
15.10.2018 15:00:00 - - - - - - -
15.10.2018 14:00:00 - - - - - - -
15.10.2018 13:00:00 32,6 27,9 11 6 ESE 1011,8 18
15.10.2018 12:00:00 - - - - - - -
15.10.2018 11:00:00 - - - - - - -
15.10.2018 10:00:00 28,4 27,1 7 4 ESE 1011,9 15
15.10.2018 09:00:00 - - - - - - -
15.10.2018 08:00:00 - - - - - - -
15.10.2018 07:00:00 27,2 25,6 7 4 ESE 1010,7 10
15.10.2018 06:00:00 - - - - - - -
15.10.2018 05:00:00 - - - - - - -
15.10.2018 04:00:00 27,2 25,6 7 4 ESE 1010,7 10
15.10.2018 03:00:00 - - - - - - -
15.10.2018 02:00:00 - - - - - - -
15.10.2018 01:00:00 28,4 25,2 14 8 SE 1011,5 10
15.10.2018 00:00:00 - - - - - - -
14.10.2018 23:00:00 - - - - - - -
14.10.2018 22:00:00 28,2 25,0 11 6 ESE 1011,2 10
14.10.2018 21:00:00 - - - - - - -
14.10.2018 20:00:00 - - - - - - -
14.10.2018 19:00:00 29,8 24,4 4 2 SE 1008,6 20
14.10.2018 18:00:00 - - - - - - -
14.10.2018 17:00:00 - - - - - - -
14.10.2018 16:00:00 33,0 24,1 7 4 E 1008,9 22
14.10.2018 15:00:00 - - - - - - -
14.10.2018 14:00:00 - - - - - - -
14.10.2018 13:00:00 33,2 25,8 4 2 NW 1010,9 22
14.10.2018 12:00:00 - - - - - - -
14.10.2018 11:00:00 - - - - - - -
14.10.2018 10:00:00 28,2 24,1 4 2 NW 1011,2 22
14.10.2018 09:00:00 - - - - - - -
14.10.2018 08:00:00 - - - - - - -
14.10.2018 07:00:00 26,8 25,2 4 2 SSW 1010,6 10
14.10.2018 06:00:00 - - - - - - -
14.10.2018 05:00:00 - - - - - - -
14.10.2018 04:00:00 26,6 24,4 7 4 S 1010,7 10
14.10.2018 03:00:00 - - - - - - -
14.10.2018 02:00:00 - - - - - - -
14.10.2018 01:00:00 27,2 24,2 11 6 ESE 1010,5 10
14.10.2018 00:00:00 - - - - - - -
13.10.2018 23:00:00 - - - - - - -
13.10.2018 22:00:00 27,8 24,3 11 6 ESE 1010,2 10
13.10.2018 21:00:00 - - - - - - -
13.10.2018 20:00:00 - - - - - - -
13.10.2018 19:00:00 29,2 24,0 11 6 ESE 1008,7 20
13.10.2018 18:00:00 - - - - - - -
13.10.2018 17:00:00 - - - - - - -
13.10.2018 16:00:00 33,6 25,7 11 6 E 1008,8 22
13.10.2018 15:00:00 - - - - - - -
13.10.2018 14:00:00 - - - - - - -
13.10.2018 13:00:00 33,6 26,5 4 2 SSE 1011,7 22
13.10.2018 12:00:00 - - - - - - -
13.10.2018 11:00:00 - - - - - - -
13.10.2018 10:00:00 28,2 24,4 4 2 S 1013,5 22
13.10.2018 09:00:00 - - - - - - -
13.10.2018 08:00:00 - - - - - - -
13.10.2018 07:00:00 26,0 24,1 4 2 S 1011,6 10
13.10.2018 06:00:00 - - - - - - -
13.10.2018 05:00:00 - - - - - - -
13.10.2018 04:00:00 26,8 24,6 7 4 S 1012,1 10
13.10.2018 03:00:00 - - - - - - -
13.10.2018 02:00:00 - - - - - - -
13.10.2018 01:00:00 27,4 24,4 7 4 SSE 1012,5 10
13.10.2018 00:00:00 - - - - - - -
12.10.2018 23:00:00 - - - - - - -
12.10.2018 22:00:00 28,0 25,3 7 4 E 1012,0 10
12.10.2018 21:00:00 - - - - - - -
12.10.2018 20:00:00 - - - - - - -
12.10.2018 19:00:00 29,4 25,1 7 4 NNE 1010,2 22
12.10.2018 18:00:00 - - - - - - -
12.10.2018 17:00:00 - - - - - - -
12.10.2018 16:00:00 33,6 26,5 7 4 SE 1010,7 22
12.10.2018 15:00:00 - - - - - - -
12.10.2018 14:00:00 - - - - - - -
12.10.2018 13:00:00 32,0 27,0 4 2 ESE 1013,9 22
12.10.2018 12:00:00 - - - - - - -
12.10.2018 11:00:00 - - - - - - -
12.10.2018 10:00:00 27,6 24,6 4 2 NW 1014,6 18
12.10.2018 09:00:00 - - - - - - -
12.10.2018 08:00:00 - - - - - - -
12.10.2018 07:00:00 26,2 24,6 4 2 NW 1014,0 10
12.10.2018 06:00:00 - - - - - - -
12.10.2018 05:00:00 - - - - - - -
12.10.2018 04:00:00 27,0 24,6 7 4 N 1013,6 10
12.10.2018 03:00:00 - - - - - - -
12.10.2018 02:00:00 - - - - - - -
12.10.2018 01:00:00 27,8 24,5 11 6 NE 1014,7 10
12.10.2018 00:00:00 - - - - - - -
11.10.2018 23:00:00 - - - - - - -
11.10.2018 22:00:00 28,8 24,7 14 8 ENE 1014,4 10
11.10.2018 21:00:00 - - - - - - -
11.10.2018 20:00:00 - - - - - - -
11.10.2018 19:00:00 29,4 25,1 14 8 ENE 1012,0 22
11.10.2018 18:00:00 - - - - - - -
11.10.2018 17:00:00 - - - - - - -
11.10.2018 16:00:00 32,4 25,2 11 6 ESE 1012,5 22

tt = temperature
td = dewpoint
ff = wind speed
dd = wind direction
ppp = reduced air pressure
vv = visibility

Next stations